Hourly Data Report for April 14, 2021

TORONTO CITY
ONTARIO
Current Station Operator: ECCC - MSC

43°40'00.000" N
79°24'00.000" W
112.50 m
6158355
71508
XTO

Download Data

Hourly Data (April 2021)
Hourly Data Report for April 14, 2021
TIME
LST
Temp Definition
°C
Dew Point Definition
°C
Rel Hum Definition
%
Precip. Amount Definition
mm

Wind Dir Definition
10's deg

Wind Spd Definition
km/h
Visibility Definition
km
Stn Press Definition
kPa
Hmdx Definition


Wind Chill Definition


Weather Definition


00:00 8.7 6.5 86 0.0       100.41     LegendNANA
01:00 8.5 6.5 88 0.0       100.39     LegendNANA
02:00 7.9 6.2 89 0.0       100.34     LegendNANA
03:00 6.4 5.5 94 0.0       100.40     LegendNANA
04:00 6.1 5.5 96 0.0       100.35     LegendNANA
05:00 5.7 5.1 96 0.0       100.33     LegendNANA
06:00 5.5 5.0 97 0.0       100.40     LegendNANA
07:00 6.1 5.5 96 0.0       100.36     LegendNANA
08:00 7.9 5.8 86 0.0       100.33     LegendNANA
09:00 7.3 5.5 88 0.0       100.32     LegendNANA
10:00 10.2 5.7 74 0.0       100.29     LegendNANA
11:00 11.5 5.1 65 0.0       100.26     LegendNANA
12:00 12.9 4.9 58 0.0       100.22     LegendNANA
13:00 14.3 3.3 47 0.0       100.14     LegendNANA
14:00 14.0 2.0 44 0.0       100.03     LegendNANA
15:00 13.7 1.0 42 0.0       99.95     LegendNANA
16:00 14.8 1.1 39 0.0       99.87     LegendNANA
17:00 14.4 -0.3 36 0.0       99.86     LegendNANA
18:00 13.8 -1.0 36 0.0       99.86     LegendNANA
19:00 13.5 -1.0 37 0.0       99.84     LegendNANA
20:00 12.9 -0.3 40 0.0       99.86     LegendNANA
21:00 12.1 0.9 46 0.0       99.83     LegendNANA
22:00 11.4 1.2 50 0.0       99.69     LegendNANA
23:00 10.2 0.6 51 0.0       99.71     LegendNANA

Notes on Data Quality.

Legend

  • E = Estimated
  • M = Missing
  • NA = Not Available*
  • [empty] = Indicates an unobserved value
Date modified: